Hourly Data Report for September 19, 2017

All times are specified in Local Standard Time (LST). Add 1 hour to adjust for Daylight Saving Time where and when it is observed.

FISHER BRANCH (AUT)
MANITOBA

51°05'00.100" N
97°33'16.200" W
253.00 m
50309J6
71442
WSZ

Download Data

Hourly Data (September 2017)
Hourly Data Report for September 19, 2017
Temp Definition
°C
Dew Point Temp Definition
°C
Rel Hum Definition
%
Wind Dir Definition
10's deg

Wind Spd Definition
km/h
Visibility Definition
km
Stn Press Definition
kPa
Hmdx Definition


Wind Chill Definition


Weather Definition


TIME
00:00 8.6 7.4 93 10 8   98.09     LegendNANA
01:00 10.3 9.3 93 11 9   98.07     LegendNANA
02:00 9.0 8.2 94 9 8   98.03     LegendNANA
03:00 8.3 7.7 96 11 8   98.02     LegendNANA
04:00 8.4 7.9 97 10 7   97.98     LegendNANA
05:00 8.6 8.1 97 8 7   97.93     LegendNANA
06:00 11.1 10.7 97 11 10   97.94     LegendNANA
07:00 11.6 11.1 97 12 11   97.96     LegendNANA
08:00 13.2 12.5 96 11 16   97.88     LegendNANA
09:00 14.1 12.0 87 11 25   97.77     LegendNANA
10:00 14.4 12.1 86 12 24   97.79     LegendNANA
11:00 14.7 12.2 85 10 25   97.68     LegendNANA
12:00 15.0 12.2 83 11 34   97.62     LegendNANA
13:00 15.4 12.3 82 10 26   97.53     LegendNANA
14:00 15.7 12.3 80 10 33   97.40     LegendNANA
15:00 16.4 13.0 80 10 25   97.38     LegendNANA
16:00 16.6 13.0 79 10 30   97.19     LegendNANA
17:00 16.6 12.9 79 9 29   97.11     LegendNANA
18:00 16.7 13.2 80 10 28   97.14     LegendNANA
19:00 16.3 13.5 84 10 22   97.13     LegendNANA
20:00 16.1 13.7 86 9 30   96.92     LegendNANA
21:00 16.3 13.9 86 10 24   96.90     LegendNANA
22:00 15.7 14.5 93 10 21   96.93     LegendNANA
23:00 15.6 14.8 95 10 24   96.82     LegendNANA

Notes on Data Quality.

Legend

  • E = Estimated
  • M = Missing
  • NA = Not Available
  • ‡ = Partner data that is not subject to review by the National Climate Archives
Date modified: